, WY

(GMT )
South Pass

Weather History for KFWZ - November, 2013

Change the Weather History Date:

Friday, November 8, 2013

  Actual Average Record
Temperature  
Mean Temperature 34 °F -  
Max Temperature 37 °F - - ()
Min Temperature 32 °F - - ()
Degree Days  
Heating Degree Days 30    
Moisture  
Dew Point 24 °F    
Average Humidity 68    
Maximum Humidity 87    
Minimum Humidity 44    
Precipitation  
Precipitation 0.00 in - - ()
Sea Level Pressure  
Sea Level Pressure 29.91 in    
Wind  
Wind Speed 14 mph (WSW)    
Max Wind Speed 38 mph    
Max Gust Speed 48 mph    
Visibility 10 miles    
Events      
Averages and records for this station are not official NWS values.
T = Trace of Precipitation, MM = Missing Value Source: NWS Daily Summary

Daily Weather History Graph

Daily Weather History Graph

Search for Another Location

Airport or City:

Trip Planner

Search our weather history database for the weather conditions in past years. The results will help you decide how hot, cold, wet, or windy it might be!

Date:

Astronomy

Nov. 08, 2013 Rise Set
Actual Time 6:57 AM MST 4:59 PM MST
Civil Twilight 6:28 AM MST 5:29 PM MST
Nautical Twilight 5:54 AM MST 6:02 PM MST
Astronomical Twilight 5:21 AM MST 6:35 PM MST
Moon 11:55 AM MST (11/8) 10:24 PM MST (11/8)
Length of Visible Light 11h 01m
Length of Day
10h 01m
Waxing Crescent, 34% of the Moon is Illuminated
Nov 8
Waxing Crescent
Nov 9
First Quarter
Nov 17
Full
Nov 25
Last Quarter
Dec 2
New

Hourly Weather History & Observations

Time (MST) Temp. Windchill Dew Point Humidity Pressure Visibility Wind Dir Wind Speed Gust Speed Precip Events Conditions
12:15 AM 35.6 °F 28.0 °F 28.4 °F 75% 29.93 in 10.0 mi WSW 10.4 mph - N/A   Overcast
12:35 AM 35.6 °F 28.0 °F 28.4 °F 75% 29.92 in 10.0 mi WSW 10.4 mph 16.1 mph N/A   Overcast
12:55 AM 33.8 °F 27.0 °F 28.4 °F 81% 29.92 in 10.0 mi WSW 8.1 mph - N/A   Overcast
1:15 AM 33.8 °F 25.3 °F 28.4 °F 81% 29.92 in 10.0 mi WSW 11.5 mph - N/A   Overcast
1:35 AM 33.8 °F 25.3 °F 28.4 °F 81% 29.91 in 10.0 mi SW 11.5 mph - N/A   Overcast
1:55 AM 32.0 °F 22.5 °F 28.4 °F 87% 29.90 in 10.0 mi WSW 12.7 mph - N/A   Overcast
2:15 AM 32.0 °F 22.5 °F 28.4 °F 87% 29.89 in 10.0 mi SW 12.7 mph - N/A   Overcast
2:35 AM 32.0 °F 22.1 °F 28.4 °F 87% 29.87 in 10.0 mi SW 13.8 mph - N/A   Overcast
2:55 AM 32.0 °F 20.8 °F 26.6 °F 80% 29.86 in 10.0 mi WSW 17.3 mph 25.3 mph N/A   Mostly Cloudy
3:15 AM 32.0 °F 21.2 °F 26.6 °F 80% 29.86 in 10.0 mi WSW 16.1 mph - N/A   Mostly Cloudy
3:35 AM 32.0 °F 20.1 °F 26.6 °F 80% 29.87 in 10.0 mi WSW 19.6 mph 23.0 mph N/A   Overcast
3:55 AM 32.0 °F 20.5 °F 26.6 °F 80% 29.87 in 10.0 mi WSW 18.4 mph 24.2 mph N/A   Overcast
4:15 AM 32.0 °F 20.1 °F 26.6 °F 80% 29.84 in 10.0 mi SW 19.6 mph 25.3 mph N/A   Overcast
4:35 AM 32.0 °F 20.1 °F 26.6 °F 80% 29.83 in 10.0 mi SW 19.6 mph 27.6 mph N/A   Overcast
4:55 AM 32.0 °F 20.8 °F 26.6 °F 80% 29.83 in 10.0 mi SW 17.3 mph 23.0 mph N/A   Mostly Cloudy
5:15 AM 32.0 °F 24.2 °F 26.6 °F 80% 29.84 in 10.0 mi SSW 9.2 mph 18.4 mph N/A   Overcast
5:35 AM 32.0 °F 22.1 °F 26.6 °F 80% 29.84 in 10.0 mi WSW 13.8 mph 21.9 mph N/A   Mostly Cloudy
5:55 AM 32.0 °F 18.4 °F 26.6 °F 80% 29.80 in 10.0 mi WSW 26.5 mph 35.7 mph N/A   Scattered Clouds
6:15 AM 32.0 °F 17.4 °F 26.6 °F 80% 29.74 in 10.0 mi WSW 31.1 mph 43.7 mph N/A   Clear
6:35 AM 32.0 °F 16.2 °F 26.6 °F 80% 29.73 in 10.0 mi WSW 38.0 mph 48.3 mph N/A   Clear
6:55 AM 32.0 °F 17.6 °F 26.6 °F 80% 29.74 in 10.0 mi WSW 29.9 mph 47.2 mph N/A   Clear
7:15 AM 32.0 °F 19.8 °F 28.4 °F 87% 29.79 in 10.0 mi WSW 20.7 mph 34.5 mph N/A   Scattered Clouds
7:35 AM 32.0 °F 23.0 °F 28.4 °F 87% 29.84 in 10.0 mi WNW 11.5 mph 26.5 mph N/A   Mostly Cloudy
7:55 AM 32.0 °F 26.4 °F 28.4 °F 87% 29.86 in 10.0 mi West 5.8 mph 25.3 mph N/A   Overcast
8:15 AM 33.8 °F 26.4 °F 28.4 °F 81% 29.88 in 10.0 mi West 9.2 mph 24.2 mph N/A   Overcast
8:35 AM 33.8 °F 23.2 °F 28.4 °F 81% 29.88 in 10.0 mi West 17.3 mph 25.3 mph N/A   Overcast
8:55 AM 33.8 °F 21.9 °F 28.4 °F 81% 29.89 in 10.0 mi West 21.9 mph 28.8 mph N/A   Overcast
9:15 AM 33.8 °F 22.8 °F 26.6 °F 75% 29.90 in 10.0 mi West 18.4 mph 32.2 mph N/A   Overcast
9:35 AM 33.8 °F 25.3 °F 26.6 °F 75% 29.90 in 10.0 mi West 11.5 mph 26.5 mph N/A   Overcast
9:55 AM 33.8 °F 23.9 °F 26.6 °F 75% 29.90 in 10.0 mi West 15.0 mph 31.1 mph N/A   Overcast
10:15 AM 33.8 °F 22.2 °F 26.6 °F 75% 29.90 in 10.0 mi West 20.7 mph 41.4 mph N/A   Overcast
10:35 AM 33.8 °F 24.8 °F 26.6 °F 75% 29.90 in 10.0 mi West 12.7 mph 26.5 mph N/A   Overcast
10:55 AM 33.8 °F 21.9 °F 24.8 °F 70% 29.90 in 10.0 mi WNW 21.9 mph 27.6 mph N/A   Overcast
11:15 AM 35.6 °F 25.5 °F 23.0 °F 60% 29.90 in 10.0 mi WNW 17.3 mph 28.8 mph N/A   Overcast
11:35 AM 35.6 °F 25.2 °F 23.0 °F 60% 29.90 in 10.0 mi West 18.4 mph 33.4 mph N/A   Overcast
11:55 AM 35.6 °F 25.5 °F 23.0 °F 60% 29.91 in 10.0 mi West 17.3 mph 35.7 mph N/A   Overcast
12:15 PM 35.6 °F 26.6 °F 23.0 °F 60% 29.92 in 10.0 mi West 13.8 mph 26.5 mph N/A   Overcast
12:35 PM 35.6 °F 25.2 °F 23.0 °F 60% 29.89 in 10.0 mi WNW 18.4 mph 31.1 mph N/A   Overcast
12:55 PM 35.6 °F 25.2 °F 23.0 °F 60% 29.90 in 10.0 mi WNW 18.4 mph 28.8 mph N/A   Mostly Cloudy
1:15 PM 37.4 °F 26.9 °F 23.0 °F 56% 29.89 in 10.0 mi West 20.7 mph 31.1 mph N/A   Scattered Clouds
1:35 PM 37.4 °F 29.8 °F 23.0 °F 56% 29.90 in 10.0 mi West 11.5 mph 24.2 mph N/A   Scattered Clouds
1:55 PM 37.4 °F 28.5 °F 21.2 °F 52% 29.91 in 10.0 mi West 15.0 mph 29.9 mph N/A   Scattered Clouds
2:15 PM 37.4 °F 28.2 °F 23.0 °F 56% 29.91 in 10.0 mi West 16.1 mph 27.6 mph N/A   Scattered Clouds
2:35 PM 37.4 °F 28.2 °F 21.2 °F 52% 29.92 in 10.0 mi West 16.1 mph 27.6 mph N/A   Scattered Clouds
2:55 PM 37.4 °F 30.3 °F 23.0 °F 56% 29.93 in 10.0 mi WSW 10.4 mph 29.9 mph N/A   Scattered Clouds
3:15 PM 37.4 °F 28.5 °F 23.0 °F 56% 29.92 in 10.0 mi WSW 15.0 mph 23.0 mph N/A   Mostly Cloudy
3:35 PM 37.4 °F 29.3 °F 23.0 °F 56% 29.92 in 10.0 mi SW 12.7 mph 21.9 mph N/A   Mostly Cloudy
3:55 PM 37.4 °F 28.9 °F 23.0 °F 56% 29.91 in 10.0 mi West 13.8 mph 26.5 mph N/A   Scattered Clouds
4:15 PM 35.6 °F 26.2 °F 23.0 °F 60% 29.92 in 10.0 mi WSW 15.0 mph 23.0 mph N/A   Clear
4:35 PM 35.6 °F 27.5 °F 23.0 °F 60% 29.92 in 10.0 mi West 11.5 mph 18.4 mph N/A   Scattered Clouds
4:55 PM 35.6 °F 28.0 °F 23.0 °F 60% 29.94 in 10.0 mi SW 10.4 mph 21.9 mph N/A   Scattered Clouds
5:15 PM 33.8 °F 28.6 °F 21.2 °F 60% 29.94 in 10.0 mi SSW 5.8 mph - N/A   Clear
5:35 PM 33.8 °F 28.6 °F 21.2 °F 60% 29.94 in 10.0 mi WSW 5.8 mph - N/A   Clear
5:55 PM 33.8 °F 25.8 °F 19.4 °F 56% 29.94 in 10.0 mi West 10.4 mph 20.7 mph N/A   Clear
6:15 PM 33.8 °F 27.0 °F 19.4 °F 56% 29.96 in 10.0 mi WSW 8.1 mph - N/A   Scattered Clouds
6:35 PM 33.8 °F 25.3 °F 19.4 °F 56% 29.96 in 10.0 mi WSW 11.5 mph 18.4 mph N/A   Overcast
6:55 PM 33.8 °F 24.3 °F 17.6 °F 52% 29.96 in 10.0 mi WSW 13.8 mph 21.9 mph N/A   Mostly Cloudy
7:15 PM 32.0 °F 24.2 °F 19.4 °F 60% 29.96 in 10.0 mi SW 9.2 mph 17.3 mph N/A   Scattered Clouds
7:35 PM 32.0 °F 23.6 °F 14.0 °F 48% 29.96 in 10.0 mi WSW 10.4 mph 19.6 mph N/A   Scattered Clouds
7:55 PM 32.0 °F 23.6 °F 12.2 °F 44% 29.96 in 10.0 mi SW 10.4 mph - N/A   Scattered Clouds
8:15 PM 32.0 °F 24.2 °F 12.2 °F 44% 29.96 in 10.0 mi WSW 9.2 mph 19.6 mph N/A   Clear
8:35 PM 32.0 °F 22.5 °F 14.0 °F 48% 29.96 in 10.0 mi West 12.7 mph 19.6 mph N/A   Clear
8:55 PM 33.8 °F 24.3 °F 19.4 °F 56% 29.96 in 10.0 mi West 13.8 mph 25.3 mph N/A   Mostly Cloudy
9:15 PM 33.8 °F 27.0 °F 21.2 °F 60% 29.98 in 10.0 mi West 8.1 mph 19.6 mph N/A   Overcast
9:35 PM 33.8 °F 26.4 °F 23.0 °F 65% 29.98 in 10.0 mi WSW 9.2 mph - N/A   Overcast
9:55 PM 33.8 °F 25.3 °F 23.0 °F 65% 29.98 in 10.0 mi West 11.5 mph 16.1 mph N/A   Overcast
10:15 PM 33.8 °F 27.0 °F 23.0 °F 65% 30.00 in 10.0 mi WSW 8.1 mph 18.4 mph N/A   Overcast
10:35 PM 33.8 °F 25.3 °F 23.0 °F 65% 30.00 in 10.0 mi SW 11.5 mph 18.4 mph N/A   Overcast
10:55 PM 33.8 °F 27.0 °F 23.0 °F 65% 30.01 in 10.0 mi SW 8.1 mph - N/A   Overcast
11:15 PM 33.8 °F 26.4 °F 23.0 °F 65% 30.01 in 10.0 mi WSW 9.2 mph 17.3 mph N/A   Overcast
11:35 PM 33.8 °F 25.8 °F 23.0 °F 65% 30.00 in 10.0 mi SW 10.4 mph - N/A   Overcast
11:55 PM 32.0 °F 24.2 °F 24.8 °F 75% 30.00 in 10.0 mi SW 9.2 mph - N/A   Overcast